Change the Weather History Date:

Saturday, March 9, 2013

  Actual Average Record
Temperature  
Mean Temperature 44 °F -  
Max Temperature 54 °F 54 °F 63 °F (2015)
Min Temperature 33 °F 36 °F 21 °F (2003)
Degree Days  
Heating Degree Days 22    
Moisture  
Dew Point 34 °F    
Average Humidity 67    
Maximum Humidity 87    
Minimum Humidity 35    
Precipitation  
Precipitation 0.00 in 0.20 in - ()
Sea Level Pressure  
Sea Level Pressure 30.40 in    
Wind  
Wind Speed 6 mph ()    
Max Wind Speed 17 mph    
Max Gust Speed 24 mph    
Visibility 9.0 miles    
Events      
Averages and records for this station are not official NWS values.
T = Trace of Precipitation, MM = Missing Value Source: Averaged Metar Reports

Daily Weather History Graph

Daily Weather History Graph

Search for Another Location

Airport or City:

Trip Planner

Search our weather history database for the weather conditions in past years. The results will help you decide how hot, cold, wet, or windy it might be!

Date:

Astronomy

Mar. 09, 2013 Rise Set
Actual Time 6:31 AM PST 6:02 PM PST
Civil Twilight 5:59 AM PST 6:34 PM PST
Nautical Twilight 5:22 AM PST 7:11 PM PST
Astronomical Twilight 4:45 AM PST 7:48 PM PST
Moon 5:07 AM PST (3/9) 4:03 PM PST (3/9)
Length of Visible Light 12h 34m
Length of Day
11h 31m
Waning Crescent, 5% of the Moon is Illuminated
Mar 9
Waning Crescent
Mar 11
New
Mar 19
First Quarter
Mar 27
Full
Apr 2
Last Quarter

Hourly Weather History & Observations

Time (PST) Temp. Windchill Dew Point Humidity Pressure Visibility Wind Dir Wind Speed Gust Speed Precip Events Conditions
12:00 AM 39.2 °F 37.0 °F 35.6 °F 87% 30.27 in 9.0 mi ENE 3.5 mph - N/A   Overcast
1:00 AM 38 °F - 35 °F 87% 30.28 in - North 3.5 mph - -  
1:00 AM 39.2 °F 35.9 °F 35.6 °F 87% 30.28 in 9.0 mi ENE 4.6 mph - N/A   Overcast
2:00 AM 39.2 °F 34.2 °F 33.8 °F 81% 30.30 in 9.0 mi East 6.9 mph - N/A   Overcast
3:00 AM 39.2 °F 35.0 °F 33.8 °F 81% 30.31 in 9.0 mi East 5.8 mph - N/A   Overcast
4:00 AM 39 °F - 34 °F 76% 30.33 in - Calm Calm - -  
4:00 AM 39.2 °F 34.2 °F 33.8 °F 81% 30.32 in 9.0 mi East 6.9 mph - N/A   Overcast
5:00 AM 39.2 °F 35.9 °F 33.8 °F 81% 30.34 in 9.0 mi East 4.6 mph - N/A   Overcast
6:00 AM 37.4 °F 32.8 °F 33.8 °F 87% 30.36 in 9.0 mi East 5.8 mph - N/A   Overcast
7:00 AM 37 °F - 33 °F 82% 30.38 in - North 3.5 mph - -  
7:00 AM 37.4 °F 34.9 °F 33.8 °F 87% 30.38 in 9.0 mi ENE 3.5 mph - N/A   Partly Cloudy
8:00 AM 39.2 °F - 33.8 °F 81% 30.40 in 9.0 mi Calm Calm - N/A   Overcast
9:00 AM 41.0 °F 37.1 °F 33.8 °F 76% 30.43 in 9.0 mi West 5.8 mph - N/A   Overcast
10:00 AM 44 °F - 35 °F 59% 30.42 in - Calm Calm - -  
10:00 AM 44.6 °F - 33.8 °F 66% 30.41 in 9.0 mi Variable 2.3 mph - N/A   Overcast
11:00 AM 48.2 °F - 33.8 °F 58% 30.40 in 8.0 mi Variable 2.3 mph - N/A   Clear
11:55 AM 50.0 °F - 35.6 °F 58% 30.41 in 9.0 mi West 13.8 mph - N/A   Clear
12:00 PM 50.0 °F - 35.6 °F 58% 30.41 in 9.0 mi West 15.0 mph - N/A   Clear
1:00 PM 53 °F - 36 °F 40% 30.42 in - North 11.5 mph - -  
1:00 PM 53.6 °F - 35.6 °F 51% 30.41 in 9.0 mi West 15.0 mph - N/A   Clear
2:00 PM 53.6 °F - 33.8 °F 47% 30.39 in 9.0 mi West 13.8 mph - N/A   Clear
3:00 PM 53.6 °F - 33.8 °F 47% 30.40 in 9.0 mi West 15.0 mph 21.9 mph N/A   Clear
4:00 PM 53 °F - 33 °F 35% 30.40 in - Calm Calm - -  
4:00 PM 53.6 °F - 33.8 °F 47% 30.40 in 9.0 mi West 17.3 mph 24.2 mph N/A   Clear
5:00 PM 51.8 °F - 33.8 °F 50% 30.42 in 9.0 mi West 13.8 mph 20.7 mph N/A   Mostly Cloudy
6:00 PM 51.8 °F - 35.6 °F 54% 30.44 in 9.0 mi WNW 8.1 mph - N/A   Overcast
7:00 PM 50 °F - 36 °F 48% 30.45 in - North 6.9 mph - -  
7:00 PM 50.0 °F - 35.6 °F 58% 30.45 in 9.0 mi West 8.1 mph - N/A   Overcast
8:00 PM 46.4 °F - 35.6 °F 66% 30.48 in 9.0 mi Calm Calm - N/A   Overcast
9:00 PM 42.8 °F 41.1 °F 35.6 °F 76% 30.49 in 9.0 mi East 3.5 mph - N/A   Clear
10:00 PM 41 °F - 35 °F 70% 30.50 in - Calm Calm - -  
10:00 PM 41.0 °F - 33.8 °F 76% 30.50 in 9.0 mi Variable 2.3 mph - N/A   Clear
11:00 PM 39.2 °F - 33.8 °F 81% 30.50 in 9.0 mi Variable 2.3 mph - N/A   Clear